Regional Weather Roundup
Issued by NWS

Home | Current Version | Previous Version | Text Only | Print | Product List | Glossary Off
Versions: 1 2 3 4 5 6 7 8 9 10 11 12 13 14 15 16 17 18 19 20 21 22 23 24 25 26 27 28 29 30 31 32 33 34 35 36 37 38 39 40 41 42 43 44 45 46 47 48 49 50

000
ASUS43 KLSX 190007
RWRMO

WEATHER SUMMARY FOR MISSOURI
NATIONAL WEATHER SERVICE SPRINGFIELD MO
700 PM CDT SAT APR 18 2015

NOTE: "FAIR" INDICATES FEW OR NO CLOUDS BELOW 12,000 FEET WITH NO
       SIGNIFICANT WEATHER AND/OR OBSTRUCTIONS TO VISIBILITY.
       CURRENT SKY AND/OR WEATHER CONDITIONS ARE NOT AVAILABLE FOR
       CHILLICOTHE AND FARMINGTON.

MOZ001>031-035>038-043-044-053-054-190100-
...NORTHERN AND WESTERN MISSOURI...

CITY           SKY/WX    TMP DP  RH WIND       PRES   REMARKS
KANSAS CTY INT CLOUDY    63  59  87 S6        29.84S
6HR MIN TEMP:  61; 6HR MAX TEMP:  64; 6HR PCP:  0.06;

KANSAS C DTWN  CLOUDY    64  58  80 SE3       29.84R
6HR MIN TEMP:  63; 6HR MAX TEMP:  65; 6HR PCP:  0.03;

LEE`S SUMMIT   CLOUDY    63  58  83 VRB6      29.85S
6HR MIN TEMP:  61; 6HR MAX TEMP:  64; 6HR PCP:  0.17;

ST JOSEPH      PTSUNNY   63  58  83 SE7       29.84S
6HR MIN TEMP:  61; 6HR MAX TEMP:  64; 6HR PCP:  0.11;

CHILLICOTHE      N/A     64  60  87 VRB3      29.86F
6HR MIN TEMP:  63; 6HR MAX TEMP:  72; 6HR PCP:  0.05;

KIRKSVILLE     CLOUDY    62  59  90 W5        29.89S
6HR MIN TEMP:  60; 6HR MAX TEMP:  74; 6HR PCP:  0.22;


$$
MOZ066>068-077>081-088>096-101>105-190100-
...SOUTHWEST MISSOURI...

CITY           SKY/WX    TMP DP  RH WIND       PRES   REMARKS
SPRINGFIELD    MOCLDY    68  57  68 E7        29.84F
6HR MIN TEMP:  63; 6HR MAX TEMP:  68;

JOPLIN         SUNNY     69  58  67 E9        29.83F
6HR MIN TEMP:  62; 6HR MAX TEMP:  71; 6HR PCP:  0.03;


$$
MOZ032>034-039>042-045>050-055>058-069>072-190100-
...CENTRAL MISSOURI...

CITY           SKY/WX    TMP DP  RH WIND       PRES   REMARKS
COLUMBIA       CLOUDY    65  61  87 N5        29.88S
6HR MIN TEMP:  64; 6HR MAX TEMP:  77; 6HR PCP:  0.07;

JEFFERSON CITY MOCLDY    67  60  78 NW3       29.87S
6HR MIN TEMP:  64; 6HR MAX TEMP:  77; 6HR PCP:  0.07;

ROLLA          CLOUDY    67  57  70 W8        29.86S
6HR MIN TEMP:  67; 6HR MAX TEMP:  75; 6HR PCP: TRACE;

SEDALIA        CLOUDY    64  59  83 SE5       29.88S
6HR MIN TEMP:  61; 6HR MAX TEMP:  65; 6HR PCP:  0.57;

WHITEMAN AFB   CLOUDY    64  59  86 SE5       29.86S
OSAGE BEACH    CLOUDY    64  57  77 CALM      29.88S

$$
MOZ051-052-059>065-190100-
...EAST CENTRAL MISSOURI...

CITY           SKY/WX    TMP DP  RH WIND       PRES   REMARKS
ST LOUIS INTL  CLOUDY    76  57  51 E9        29.87S
6HR MIN TEMP:  74; 6HR MAX TEMP:  79;

SPIRIT OF STL  CLOUDY    75  57  53 E5        29.85S
6HR MIN TEMP:  72; 6HR MAX TEMP:  77;

ST CHARLES     MOCLDY    75  58  55 E10       29.86S
6HR MIN TEMP:  74; 6HR MAX TEMP:  78;


$$
MOZ072>076-082>087-097>100-106>115-190100-
...SOUTH CENTRAL AND SOUTHEAST MISSOURI...

CITY           SKY/WX    TMP DP  RH WIND       PRES   REMARKS
CAPE GIRARDEAU MOCLDY    75  61  61 CALM      29.85F
6HR MIN TEMP:  74; 6HR MAX TEMP:  78;

FARMINGTON     CLOUDY    72  57  60 SE8       29.91S
6HR MIN TEMP:  72; 6HR MAX TEMP:  77;

POPLAR BLUFF   CLOUDY    74  61  63 CALM      29.84F
6HR MIN TEMP:  74; 6HR MAX TEMP:  77;

WEST PLAINS    CLOUDY    72  55  55 CALM      29.87F
6HR MIN TEMP:  68; 6HR MAX TEMP:  73;


$$


USA.gov is the U.S. government's official web portal to all federal, state and local government web resources and services.